Temperature
15 15 15 15 15 15 15 15 15 15 15 15 14 14 14 14 14 14 14 14 13 13 13 13 13 13 13 13 12 12 12 12 12 12 12 12 11 11 11 11 11 11 11
15 15 15 15 15 15 15 15 15 15 15 14 14 14 14 14 14 14 14 14 13 13 13 13 13 13 13 13 12 12 12 12 12 12 11 11 11 11 11 11 11 10 11
15 14 14 15 15 15 15 15 15 14 14 14 14 14 14 14 14 14 13 13 13 13 13 13 13 13 13 13 12 12 12 12 12 11 11 11 11 11 11 10 10 10 10
14 14 14 14 15 14 14 14 14 14 14 14 14 14 14 14 14 13 13 13 13 13 13 13 13 13 13 12 12 12 12 12 11 11 11 11 10 10 10 10 10 10 10
14 14 14 14 14 14 14 14 14 14 14 14 14 14 13 13 13 13 13 13 13 13 13 13 13 13 12 12 12 12 12 11 11 11 11 10 10 10 10 10 10 10 10
14 14 14 14 14 14 14 14 14 14 14 13 13 13 13 13 13 13 13 13 13 13 13 13 13 13 12 12 12 12 11 11 11 11 10 10 10 10 9 9 9 9 9
13 13 13 13 13 13 13 13 13 13 13 13 13 13 13 13 13 13 13 13 13 13 12 12 12 12 12 12 12 12 11 11 11 10 10 10 9 9 9 9 9 9 9
13 13 13 13 13 13 13 13 13 13 13 12 12 12 12 12 13 13 13 12 12 12 12 12 12 12 12 12 11 11 11 11 10 10 10 9 9 9 9 8 8 8 9
13 13 13 13 13 13 13 13 13 13 12 12 12 12 12 12 12 12 12 12 12 12 12 12 12 12 12 11 11 11 11 10 10 10 9 9 9 9 8 8 8 8 8
12 12 12 12 12 12 13 12 12 12 12 12 12 12 12 12 12 12 12 12 12 12 12 12 11 11 11 11 11 11 10 10 9 9 9 9 9 8 8 8 8 8 8
12 12 12 12 12 12 12 12 12 12 12 12 12 12 11 11 11 11 11 12 11 12 11 11 11 11 11 11 10 10 10 9 9 9 9 8 8 8 8 8 7 7 8
11 11 11 11 12 12 12 12 12 11 11 11 11 11 11 11 11 11 11 11 11 11 11 11 11 11 11 10 10 10 9 9 9 8 8 8 8 8 7 7 7 7 7
11 11 11 11 11 11 11 11 11 11 11 11 11 11 11 11 11 11 11 11 10 10 10 10 11 10 10 10 10 9 9 9 8 8 8 8 7 7 7 7 7 7 7
11 11 11 11 11 11 11 11 11 11 11 11 11 11 10 10 10 10 10 10 9 9 9 10 10 10 10 10 9 9 9 8 8 8 8 7 7 7 7 6 6 6 6
10 10 10 10 10 10 10 10 10 10 10 10 10 10 10 10 10 10 10 10 9 9 9 9 10 10 9 9 9 8 8 8 8 7 7 7 7 6 6 6 6 6 6
9 10 10 10 10 10 10 10 10 10 10 10 9 9 9 9 9 9 9 9 9 9 9 9 9 9 9 8 8 8 8 7 7 7 6 6 6 6 5 5 5 5 5
9 9 9 9 9 9 9 9 9 9 9 9 9 9 9 9 9 9 8 8 8 8 8 8 8 8 8 8 8 7 7 7 6 6 6 6 5 5 5 5 5 5 5
8 8 9 8 8 8 8 8 8 8 8 8 8 8 8 8 8 8 8 8 8 8 8 8 8 8 7 7 7 7 6 6 6 6 5 5 5 4 4 4 4 4 4
8 8 8 8 8 8 8 8 8 8 7 7 7 7 7 7 7 7 7 7 7 7 7 7 7 7 7 6 6 6 6 5 5 5 5 4 4 4 4 4 4 4 4
7 7 7 7 7 7 7 7 6 6 6 6 6 6 6 6 6 6 6 6 6 6 6 6 6 6 6 6 5 5 5 5 4 4 4 3 3 3 3 3 3 3 4
7 7 7 7 6 6 6 6 6 6 5 5 6 6 6 6 6 6 6 6 6 5 5 5 5 5 5 5 5 5 5 4 4 3 3 3 3 3 3 3 3 3 3
6 6 6 6 6 5 5 5 5 5 5 5 5 5 5 5 5 5 5 5 5 5 5 5 5 5 5 5 5 5 4 3 3 3 3 3 2 2 2 2 2 2 2
5 5 5 5 5 5 4 4 4 4 4 4 4 4 4 4 4 4 4 4 4 4 4 5 4 5 5 4 4 4 3 3 3 3 3 2 2 2 2 2 2 2 2
4 4 4 4 4 4 4 3 3 3 3 3 3 3 3 3 3 3 3 3 4 4 4 4 4 4 4 4 3 3 3 3 2 2 2 2 2 2 1 1 1 1 1
3 3 3 3 3 3 3 3 2 2 2 3 3 3 2 3 3 3 2 3 3 3 3 3 3 3 3 3 3 3 2 2 2 2 1 1 1 1 1 1 1 1 1
3 2 2 2 2 2 2 2 2 2 2 2 2 2 2 2 2 2 2 2 2 2 2 2 2 2 2 2 2 2 2 2 2 1 1 1 1 0 0 0 0 1 1
Wind_Speed
7 6 6 8 8 9 8 6 5 5 4 4 4 5 4 5 5 5 5 5 5 5 5 4 4 4 3 3 2 2 2 1 1 0 1 1 2 2 3 4 4 5 5
8 7 6 6 7 9 9 7 6 4 3 3 2 3 4 5 5 5 6 5 5 5 5 4 4 4 4 3 3 2 2 2 1 0 0 1 1 2 3 4 4 5 6
11 8 7 7 7 9 9 7 5 4 3 2 3 3 3 4 5 6 6 5 5 5 5 5 4 4 4 3 2 2 2 2 2 1 0 1 1 2 3 4 4 5 6
13 9 7 7 8 9 7 5 5 4 3 3 2 2 2 2 4 5 5 5 5 5 5 4 3 3 3 3 3 2 2 3 3 2 1 1 1 1 2 3 4 5 6
13 9 7 6 9 6 5 6 5 4 4 3 2 2 2 2 3 4 4 5 6 6 5 4 4 3 2 3 3 3 3 2 2 2 1 1 1 1 2 3 4 5 6
12 9 6 7 7 6 6 6 5 4 3 4 2 1 1 2 2 3 4 4 5 6 6 5 4 3 3 3 3 3 3 3 3 2 2 1 1 1 2 3 4 5 6
10 8 6 7 7 7 7 7 5 5 3 3 2 0 1 1 3 2 2 3 4 6 6 6 5 4 3 3 3 3 4 4 4 4 3 3 3 2 2 2 4 5 6
9 8 8 7 7 7 7 7 6 4 3 5 3 2 1 2 2 2 3 4 4 4 5 6 6 6 5 4 3 3 3 4 5 5 4 4 4 3 2 3 4 5 5
8 7 8 7 7 7 7 8 8 7 5 4 4 4 3 4 2 2 3 4 4 4 4 5 6 6 6 5 4 4 3 4 5 5 5 4 3 3 3 3 3 4 4
6 7 7 7 7 7 7 8 8 6 6 5 4 3 3 3 3 2 2 3 4 5 5 4 5 6 7 6 6 5 4 5 5 5 4 3 2 1 1 2 3 3 4
5 5 6 6 7 7 7 7 7 7 6 6 5 3 2 1 2 3 4 3 3 4 5 5 5 7 8 8 7 6 6 6 6 6 5 3 1 1 1 2 2 3 4
3 4 4 5 6 6 7 7 8 8 7 7 6 5 4 4 4 4 4 4 4 3 4 4 5 6 8 8 8 8 8 7 6 6 5 3 2 2 1 1 2 3 4
2 3 3 4 5 5 6 6 7 8 8 8 8 6 6 5 4 3 4 4 4 3 3 4 5 6 8 9 9 10 8 7 6 6 5 4 4 3 2 1 2 3 4
3 3 3 4 4 5 5 5 6 7 7 8 8 7 6 5 5 5 4 4 4 4 5 6 4 6 8 9 10 10 8 8 7 6 6 5 5 4 2 0 1 3 4
2 3 3 4 4 5 5 5 5 6 6 7 7 8 6 5 5 5 5 6 6 6 8 7 5 5 8 8 10 9 8 9 9 8 7 7 6 4 3 1 1 2 3
0 1 2 3 4 4 4 4 4 5 6 6 6 7 7 5 5 5 6 6 6 7 7 5 5 4 6 7 10 9 9 10 10 10 9 8 7 5 4 2 0 2 3
0 0 1 1 2 3 4 4 5 5 6 6 5 7 8 6 6 6 6 6 6 6 8 4 2 3 5 6 6 8 8 8 8 10 10 9 8 7 5 3 1 1 2
0 1 1 0 1 2 3 4 5 5 6 7 7 7 8 6 7 6 6 7 7 6 6 7 4 4 5 7 6 6 6 7 8 10 10 9 8 8 6 5 3 1 1
2 1 1 1 2 2 3 3 4 5 6 7 7 7 7 7 8 6 7 7 6 5 5 5 4 3 2 3 4 3 4 3 6 8 10 9 9 8 7 6 4 2 1
3 3 2 2 2 2 2 2 3 4 5 5 6 7 7 8 9 8 7 7 6 6 5 5 4 4 3 3 4 4 4 3 3 4 7 8 9 8 8 7 5 3 1
5 4 3 4 3 2 2 2 2 3 4 5 5 6 7 9 10 9 7 7 7 7 6 6 6 4 5 5 7 5 5 3 3 3 3 3 5 4 4 6 6 4 2
6 6 5 4 4 4 6 7 5 3 4 5 6 6 6 7 9 11 11 11 11 9 9 8 7 8 8 7 6 6 5 4 4 4 4 3 3 3 4 5 6 5 4
6 6 6 5 4 6 9 9 8 5 4 5 5 5 5 5 7 6 9 10 11 14 14 10 10 10 8 9 9 8 7 5 5 5 4 3 3 3 4 7 8 7 5
5 6 6 6 6 7 10 10 10 5 4 4 5 5 6 6 6 6 6 7 7 8 9 8 9 8 7 8 10 9 8 5 3 2 4 3 3 3 2 5 7 8 7
6 6 6 6 7 8 11 11 10 5 4 5 5 5 6 6 9 10 7 7 7 6 7 8 9 8 10 12 11 8 7 6 3 3 3 3 3 2 2 2 4 7 8
5 5 6 6 6 7 11 13 11 4 5 6 5 5 8 9 11 10 6 6 7 6 4 4 4 6 7 10 15 10 10 8 4 4 5 4 4 3 2 1 1 3 4
Wind_Direction
173 172 172 175 176 175 176 173 171 169 171 175 184 187 195 203 209 215 226 232 232 233 234 236 238 243 234 237 253 238 222 216 159 352 310 334 353 327 318 323 330 336 333
177 177 176 179 182 183 183 181 178 174 177 178 190 196 204 208 210 213 220 226 229 230 233 237 240 242 237 242 252 223 186 186 175 140 337 323 341 346 334 331 332 331 333
180 179 180 183 185 183 178 174 168 164 171 183 204 208 208 206 207 211 213 215 219 225 229 235 237 239 228 232 246 210 185 186 179 171 19 353 335 338 334 334 331 334 328
182 177 181 185 181 177 176 175 173 172 184 188 198 214 210 203 207 209 208 208 209 213 222 226 227 232 227 234 236 222 201 192 200 206 237 277 292 320 338 338 337 336 334
181 178 181 182 176 175 179 184 181 176 186 188 192 203 216 222 215 202 202 207 206 206 209 214 213 223 224 226 234 235 227 208 209 213 229 263 268 326 338 342 338 336 339
180 178 180 180 176 178 183 184 181 177 180 173 173 195 239 239 222 208 206 200 201 204 207 205 200 204 208 211 227 222 218 218 218 223 231 248 266 312 339 337 339 350 348
179 178 183 179 181 187 188 183 178 177 177 154 133 289 298 244 223 219 204 195 197 198 199 199 195 187 187 188 194 197 212 224 232 231 227 239 259 272 305 329 328 337 346
180 183 184 187 187 189 189 188 179 177 184 176 160 149 262 284 247 214 209 210 209 192 189 191 188 186 186 180 188 199 214 232 241 239 242 248 253 258 279 306 327 338 345
178 180 182 183 188 190 196 196 190 186 191 196 192 175 186 226 255 238 217 210 203 201 202 192 193 193 191 189 189 202 217 236 246 247 250 253 255 259 275 293 322 343 351
180 182 186 186 189 192 195 199 197 194 184 196 208 214 205 177 190 240 247 223 213 211 206 201 195 197 197 198 204 206 214 227 238 243 248 254 245 248 296 333 348 356 2
180 183 187 194 194 197 201 199 200 200 198 198 197 194 199 218 202 208 246 245 241 231 215 206 199 200 199 198 203 210 217 228 237 239 233 222 187 96 19 351 358 8 0
177 183 191 201 200 202 204 205 205 206 209 208 208 202 194 198 206 203 229 239 239 237 223 213 210 206 203 200 207 210 213 219 224 224 216 198 155 109 63 12 358 357 345
192 201 204 207 205 206 207 206 209 209 211 212 214 218 217 219 201 199 217 235 241 241 230 229 220 210 206 201 204 206 207 208 209 209 201 178 146 121 95 27 354 346 339
202 196 207 217 215 210 211 209 215 215 212 215 219 220 226 225 212 208 206 211 242 245 234 234 217 212 208 200 204 200 198 199 198 200 194 174 150 138 130 85 341 335 335
195 190 207 216 220 216 213 212 223 221 215 219 222 223 229 232 225 222 215 213 220 243 242 222 214 209 203 201 204 195 195 197 195 193 186 169 156 152 153 166 312 326 329
174 200 214 218 224 223 215 211 225 228 227 229 227 228 232 233 229 225 223 225 225 232 245 219 211 194 193 198 205 197 196 197 196 193 187 178 173 170 174 181 183 344 341
252 231 251 253 248 242 227 217 222 224 228 235 236 234 238 232 230 228 225 225 229 229 245 243 204 190 190 196 196 194 196 196 195 197 193 187 184 182 185 179 165 12 352
54 35 22 327 271 248 232 223 225 228 230 234 236 236 240 237 236 233 228 228 229 225 231 238 214 199 207 199 190 190 193 195 196 197 195 191 188 187 187 179 170 134 8
52 44 49 13 338 301 259 243 236 239 240 241 240 241 244 239 245 241 236 234 232 229 226 229 222 203 203 184 180 186 186 195 198 198 196 194 191 190 186 178 169 153 50
31 26 23 6 342 329 307 277 260 256 256 255 253 249 246 241 242 237 237 233 228 226 220 219 216 200 199 180 179 190 196 199 202 194 197 193 191 189 187 179 170 164 151
24 20 20 10 2 345 323 319 296 284 278 276 271 260 254 254 252 246 242 233 223 224 219 219 219 207 203 189 199 189 196 179 197 190 177 183 174 173 184 182 173 175 181
18 19 17 8 360 349 343 340 330 306 291 280 277 275 269 259 259 259 254 245 233 227 222 220 223 220 217 205 187 183 175 171 206 193 172 185 163 177 187 188 187 188 188
15 12 5 1 352 343 345 339 329 319 297 284 279 279 284 278 274 259 261 258 249 241 232 225 223 222 213 199 184 186 188 184 192 173 159 182 170 189 201 201 194 193 190
12 6 360 357 354 347 348 344 339 327 299 287 279 273 273 274 270 268 262 257 253 248 239 231 226 223 211 193 190 189 182 155 106 142 154 174 175 189 180 202 202 196 190
3 357 350 350 349 343 345 345 343 328 315 302 291 284 280 277 278 280 270 256 257 260 251 236 226 222 209 196 182 161 160 165 175 184 176 163 160 152 159 193 211 198 191
348 345 344 342 338 334 340 342 340 329 318 311 303 293 288 285 282 281 271 256 255 258 235 223 220 216 206 196 188 182 177 174 159 180 182 163 153 146 168 198 180 189 183
Height
1516 1519 1522 1525 1527 1530 1533 1535 1537 1539 1541 1542 1544 1545 1546 1546 1547 1548 1548 1548 1548 1548 1548 1548 1547 1547 1546 1546 1546 1545 1545 1544 1543 1543 1542 1541 1540 1540 1539 1538 1537 1536 1535
1514 1517 1519 1522 1525 1528 1530 1533 1535 1537 1539 1541 1542 1543 1544 1544 1545 1546 1546 1546 1546 1546 1546 1546 1546 1545 1545 1544 1544 1543 1543 1542 1542 1541 1540 1540 1539 1538 1537 1536 1535 1534 1533
1510 1514 1517 1519 1522 1525 1528 1530 1533 1535 1537 1538 1540 1541 1542 1542 1543 1543 1544 1544 1544 1544 1544 1544 1544 1543 1543 1543 1542 1542 1541 1540 1540 1539 1539 1538 1537 1536 1535 1534 1533 1532 1531
1506 1510 1513 1516 1519 1522 1525 1527 1530 1532 1534 1536 1537 1538 1539 1540 1540 1541 1541 1542 1542 1542 1542 1541 1541 1541 1541 1540 1540 1539 1539 1538 1538 1537 1536 1536 1535 1534 1533 1532 1531 1530 1529
1503 1506 1509 1513 1516 1519 1521 1524 1527 1529 1531 1532 1534 1535 1536 1537 1538 1538 1539 1539 1539 1539 1539 1539 1539 1538 1538 1538 1537 1537 1536 1536 1535 1535 1534 1533 1533 1532 1531 1530 1529 1528 1527
1498 1502 1506 1509 1512 1515 1518 1521 1523 1525 1527 1529 1531 1532 1533 1533 1534 1534 1535 1535 1536 1536 1536 1536 1535 1535 1535 1535 1534 1534 1534 1533 1533 1532 1531 1531 1530 1529 1528 1527 1527 1525 1524
1494 1498 1501 1505 1508 1511 1513 1516 1519 1521 1523 1525 1527 1528 1528 1529 1530 1530 1531 1532 1532 1532 1532 1532 1532 1532 1532 1531 1531 1531 1530 1530 1530 1529 1528 1528 1527 1526 1525 1524 1524 1523 1522
1490 1493 1497 1500 1503 1507 1509 1512 1514 1516 1518 1521 1522 1523 1524 1525 1524 1526 1526 1527 1528 1528 1528 1529 1529 1529 1528 1528 1528 1527 1527 1527 1526 1526 1525 1524 1523 1523 1522 1521 1520 1519 1518
1485 1489 1492 1495 1498 1502 1504 1507 1509 1511 1513 1516 1518 1519 1520 1519 1520 1520 1521 1522 1523 1523 1524 1524 1524 1524 1524 1524 1523 1523 1523 1523 1522 1522 1521 1520 1520 1519 1518 1517 1516 1515 1514
1481 1484 1487 1490 1493 1496 1499 1501 1504 1506 1508 1510 1512 1514 1516 1515 1516 1515 1516 1517 1518 1518 1518 1519 1519 1519 1519 1519 1519 1519 1518 1518 1518 1518 1517 1517 1516 1515 1514 1513 1512 1511 1511
1476 1480 1483 1486 1488 1491 1493 1496 1498 1501 1503 1504 1506 1508 1509 1511 1511 1511 1510 1511 1512 1512 1513 1513 1514 1514 1514 1514 1514 1514 1514 1513 1513 1513 1512 1512 1511 1510 1510 1509 1508 1507 1507
1472 1475 1478 1481 1483 1485 1488 1490 1493 1495 1497 1499 1501 1502 1503 1505 1505 1505 1505 1505 1505 1506 1507 1507 1507 1508 1508 1508 1508 1508 1508 1508 1508 1508 1507 1507 1506 1506 1505 1505 1504 1503 1503
1467 1470 1473 1475 1477 1480 1482 1484 1487 1489 1491 1493 1494 1496 1497 1499 1500 1500 1501 1500 1499 1500 1500 1500 1501 1502 1502 1502 1502 1502 1502 1502 1502 1502 1502 1501 1501 1501 1501 1501 1500 1499 1498
1463 1465 1468 1470 1472 1474 1476 1478 1481 1482 1484 1486 1488 1489 1491 1492 1493 1494 1494 1495 1494 1493 1493 1493 1494 1495 1495 1496 1496 1496 1496 1496 1497 1496 1496 1496 1496 1496 1496 1496 1495 1495 1494
1459 1461 1463 1465 1467 1468 1470 1472 1474 1476 1477 1479 1481 1482 1483 1484 1486 1487 1488 1489 1489 1486 1485 1486 1487 1488 1488 1489 1490 1490 1490 1490 1491 1491 1490 1490 1490 1490 1491 1491 1490 1490 1489
1455 1456 1458 1460 1461 1462 1463 1465 1467 1469 1470 1472 1473 1475 1476 1477 1478 1479 1480 1481 1481 1480 1478 1478 1479 1481 1481 1482 1483 1484 1484 1484 1485 1485 1485 1485 1485 1485 1485 1486 1486 1485 1485
1451 1452 1453 1454 1455 1456 1457 1459 1460 1462 1463 1464 1465 1467 1468 1469 1470 1471 1472 1472 1473 1473 1472 1471 1472 1473 1474 1475 1476 1477 1478 1478 1478 1479 1480 1479 1480 1480 1481 1481 1481 1481 1481
1447 1448 1448 1449 1450 1451 1451 1452 1453 1455 1456 1456 1457 1459 1460 1461 1462 1463 1463 1464 1465 1465 1465 1464 1464 1465 1467 1468 1469 1470 1471 1472 1472 1473 1474 1474 1474 1475 1476 1476 1476 1476 1477
1444 1444 1445 1445 1446 1445 1446 1446 1447 1448 1449 1450 1451 1451 1452 1453 1454 1455 1455 1456 1456 1457 1457 1457 1457 1458 1459 1460 1461 1463 1464 1465 1466 1467 1468 1469 1469 1470 1471 1471 1472 1472 1472
1441 1442 1442 1442 1442 1441 1441 1441 1442 1442 1443 1443 1444 1444 1445 1445 1446 1447 1447 1447 1448 1448 1449 1449 1449 1450 1451 1453 1454 1455 1456 1458 1459 1461 1462 1463 1464 1465 1466 1467 1467 1468 1469
1440 1439 1439 1439 1439 1438 1437 1436 1436 1436 1436 1437 1437 1438 1438 1438 1438 1439 1439 1439 1440 1440 1440 1441 1441 1442 1444 1445 1446 1447 1449 1451 1453 1454 1456 1457 1458 1460 1461 1462 1463 1464 1465
1438 1438 1437 1436 1436 1435 1434 1433 1433 1432 1432 1431 1431 1431 1431 1431 1431 1431 1431 1432 1432 1432 1432 1433 1433 1434 1435 1437 1438 1440 1442 1444 1446 1448 1450 1451 1453 1454 1456 1458 1459 1460 1461
1437 1436 1435 1434 1433 1432 1431 1430 1429 1428 1427 1427 1426 1426 1425 1425 1425 1424 1423 1423 1424 1424 1425 1426 1425 1426 1428 1429 1431 1433 1434 1436 1438 1442 1444 1445 1448 1449 1452 1453 1455 1456 1458
1435 1434 1433 1431 1430 1429 1428 1427 1426 1424 1423 1422 1422 1421 1419 1418 1418 1417 1416 1416 1416 1416 1416 1417 1418 1419 1420 1422 1424 1426 1428 1431 1433 1436 1438 1439 1442 1444 1447 1449 1450 1452 1454
1434 1432 1431 1429 1428 1426 1425 1423 1422 1420 1418 1417 1417 1415 1414 1413 1412 1412 1411 1409 1409 1408 1409 1410 1410 1411 1413 1414 1417 1419 1421 1424 1426 1429 1431 1434 1436 1439 1442 1444 1446 1448 1450
1433 1431 1429 1428 1425 1423 1421 1419 1418 1416 1414 1413 1411 1410 1409 1408 1407 1406 1405 1403 1402 1402 1402 1403 1403 1404 1405 1407 1409 1412 1415 1418 1419 1423 1425 1428 1430 1434 1437 1439 1442 1444 1446